When you browse on this site, cookies collect data to enhance your experience and personalize the content and advertising you see.
Visit our Privacy Policy to learn more. By continuing to use the site, you agree to this use of cookies and data.
  • In Hungary
  • List of Countries
  • For 7 days
  • Water Temperature
  • Weather Map
  • News
  • Weather Widgets
  • user-avatar
    Login

    Hourly Weather Velikaya Novoselka

    Today, 12 November, Tuesday

    Time Temperature Precipitation Wind Pressure Humidity
    00:00 +10°C° 0 mm 2 mps 756 mmHg 87%
    01:00 +10°C° 0 mm 2 mps 756 mmHg 87%
    02:00 +10°C° 0 mm 2 mps 756 mmHg 87%
    03:00 +11°C° 0 mm 1 mps 756 mmHg 88%
    04:00 +11°C° 0 mm 1 mps 757 mmHg 89%
    05:00 +11°C° 0 mm 1 mps 757 mmHg 90%
    06:00 +11°C° 0 mm 1 mps 757 mmHg 89%
    07:00 +10°C° 0 mm 0 mps 758 mmHg 88%
    08:00 +11°C° 0 mm 0 mps 758 mmHg 87%
    09:00 +12°C° 0 mm 0 mps 758 mmHg 81%
    10:00 +14°C° 0 mm 0 mps 758 mmHg 74%
    11:00 +15°C° 0 mm 0 mps 758 mmHg 68%
    12:00 +16°C° 0 mm 0 mps 758 mmHg 65%
    13:00 +18°C° 0 mm 1 mps 759 mmHg 62%
    14:00 +19°C° 0 mm 1 mps 759 mmHg 59%
    15:00 +18°C° 0 mm 1 mps 759 mmHg 65%
    16:00 +15°C° 0 mm 2 mps 759 mmHg 71%
    17:00 +14°C° 0 mm 2 mps 759 mmHg 77%
    18:00 +13°C° 0 mm 2 mps 759 mmHg 80%
    19:00 +13°C° 0 mm 2 mps 759 mmHg 82%
    20:00 +12°C° 0 mm 2 mps 759 mmHg 85%
    21:00 +12°C° 0 mm 2 mps 759 mmHg 86%
    22:00 +12°C° 0 mm 2 mps 759 mmHg 87%
    23:00 +10°C° 0 mm 2 mps 759 mmHg 88%

    Tomorrow, 13 November, Wednesday

    Time Temperature Precipitation Wind Pressure Humidity
    00:00 +10°C° 0 mm 2 mps 759 mmHg 89%
    01:00 +10°C° 0 mm 2 mps 760 mmHg 89%
    02:00 +10°C° 0 mm 3 mps 760 mmHg 90%
    03:00 +9°C° 0 mm 3 mps 759 mmHg 90%
    04:00 +9°C° 0 mm 3 mps 759 mmHg 91%
    05:00 +9°C° 0 mm 3 mps 759 mmHg 91%
    06:00 +8°C° 0 mm 4 mps 759 mmHg 88%
    07:00 +10°C° 0 mm 4 mps 759 mmHg 84%
    08:00 +9°C° 0 mm 5 mps 760 mmHg 81%
    09:00 +12°C° 0 mm 5 mps 759 mmHg 73%
    10:00 +13°C° 0 mm 5 mps 759 mmHg 65%
    11:00 +15°C° 0 mm 6 mps 759 mmHg 57%
    12:00 +15°C° 0 mm 6 mps 759 mmHg 55%
    13:00 +16°C° 0 mm 6 mps 759 mmHg 53%
    14:00 +16°C° 0 mm 6 mps 758 mmHg 51%
    15:00 +15°C° 0 mm 6 mps 758 mmHg 56%
    16:00 +13°C° 0 mm 5 mps 758 mmHg 61%
    17:00 +12°C° 0 mm 5 mps 758 mmHg 66%
    18:00 +12°C° 0 mm 5 mps 758 mmHg 69%
    19:00 +10°C° 0 mm 6 mps 758 mmHg 72%
    20:00 +10°C° 0 mm 6 mps 758 mmHg 75%
    21:00 +9°C° 0 mm 6 mps 758 mmHg 77%
    22:00 +9°C° 0 mm 6 mps 758 mmHg 79%
    23:00 +8°C° 0 mm 7 mps 758 mmHg 80%

    Day after tomorrow, 14 November, Thursday

    Time Temperature Precipitation Wind Pressure Humidity
    00:00 +8°C° 0 mm 6 mps 758 mmHg 78%
    01:00 +7°C° 0 mm 6 mps 758 mmHg 75%
    02:00 +7°C° 0 mm 6 mps 758 mmHg 73%
    03:00 +6°C° 0 mm 7 mps 758 mmHg 72%
    04:00 +5°C° 0 mm 7 mps 758 mmHg 70%
    05:00 +5°C° 0 mm 7 mps 758 mmHg 69%
    06:00 +5°C° 0 mm 8 mps 758 mmHg 67%
    07:00 +5°C° 0 mm 8 mps 758 mmHg 64%
    08:00 +5°C° 0 mm 8 mps 758 mmHg 62%
    09:00 +6°C° 0 mm 9 mps 758 mmHg 54%
    10:00 +8°C° 0 mm 9 mps 758 mmHg 47%
    11:00 +10°C° 0 mm 9 mps 758 mmHg 39%
    12:00 +10°C° 0 mm 9 mps 757 mmHg 39%
    13:00 +10°C° 0 mm 9 mps 757 mmHg 38%
    14:00 +11°C° 0 mm 9 mps 757 mmHg 37%
    15:00 +10°C° 0 mm 9 mps 757 mmHg 41%
    16:00 +9°C° 0 mm 8 mps 757 mmHg 44%
    17:00 +7°C° 0 mm 8 mps 757 mmHg 48%
    18:00 +7°C° 0 mm 9 mps 757 mmHg 50%
    19:00 +6°C° 0 mm 9 mps 757 mmHg 53%
    20:00 +6°C° 0 mm 9 mps 757 mmHg 55%
    21:00 +6°C° 0 mm 9 mps 757 mmHg 56%
    22:00 +5°C° 0 mm 9 mps 757 mmHg 57%
    23:00 +5°C° 0 mm 9 mps 757 mmHg 58%

    15 November, Friday

    Time Temperature Precipitation Wind Pressure Humidity
    00:00 +5°C° 0 mm 9 mps 757 mmHg 60%
    01:00 +5°C° 0 mm 9 mps 757 mmHg 62%
    02:00 +3°C° 0 mm 9 mps 757 mmHg 63%
    03:00 +3°C° 0 mm 9 mps 757 mmHg 64%
    04:00 +4°C° 0 mm 8 mps 757 mmHg 65%
    05:00 +4°C° 0 mm 8 mps 757 mmHg 67%
    06:00 +3°C° 0 mm 9 mps 757 mmHg 66%
    07:00 +3°C° 0 mm 9 mps 757 mmHg 66%
    08:00 +3°C° 0 mm 9 mps 757 mmHg 66%
    09:00 +5°C° 0 mm 9 mps 758 mmHg 61%
    10:00 +7°C° 0 mm 9 mps 758 mmHg 56%
    11:00 +8°C° 0 mm 9 mps 758 mmHg 51%
    12:00 +8°C° 0 mm 9 mps 758 mmHg 50%
    13:00 +10°C° 0 mm 8 mps 758 mmHg 48%
    14:00 +10°C° 0 mm 8 mps 758 mmHg 47%
    15:00 +9°C° 0 mm 7 mps 758 mmHg 51%
    16:00 +8°C° 0 mm 6 mps 758 mmHg 55%
    17:00 +7°C° 0 mm 5 mps 758 mmHg 60%
    18:00 +7°C° 0 mm 5 mps 758 mmHg 63%
    19:00 +5°C° 0 mm 6 mps 758 mmHg 66%
    20:00 +5°C° 0 mm 6 mps 758 mmHg 69%
    21:00 +5°C° 0 mm 6 mps 759 mmHg 71%
    22:00 +4°C° 0 mm 6 mps 759 mmHg 73%
    23:00 +4°C° 0 mm 6 mps 759 mmHg 75%

    16 November, Saturday

    Time Temperature Precipitation Wind Pressure Humidity
    00:00 +5°C° 0 mm 5 mps 759 mmHg 78%
    01:00 +3°C° 0 mm 5 mps 759 mmHg 80%
    02:00 +3°C° 0 mm 5 mps 759 mmHg 83%
    03:00 +3°C° 0 mm 5 mps 759 mmHg 84%
    04:00 +2°C° 0 mm 5 mps 759 mmHg 85%
    05:00 +2°C° 0 mm 5 mps 759 mmHg 87%
    06:00 +2°C° 0 mm 5 mps 759 mmHg 84%
    07:00 +3°C° 0 mm 6 mps 760 mmHg 81%
    08:00 +3°C° 0 mm 6 mps 760 mmHg 79%
    09:00 +4°C° 0 mm 6 mps 760 mmHg 72%
    10:00 +5°C° 0 mm 6 mps 760 mmHg 65%
    11:00 +8°C° 0 mm 6 mps 760 mmHg 58%
    12:00 +8°C° 0 mm 6 mps 760 mmHg 56%
    13:00 +9°C° 0 mm 6 mps 760 mmHg 53%
    14:00 +9°C° 0 mm 6 mps 760 mmHg 51%
    15:00 +8°C° 0 mm 6 mps 760 mmHg 55%
    16:00 +7°C° 0 mm 5 mps 760 mmHg 59%
    17:00 +6°C° 0 mm 5 mps 760 mmHg 63%
    18:00 +6°C° 0 mm 5 mps 760 mmHg 65%
    19:00 +6°C° 0 mm 5 mps 760 mmHg 67%
    20:00 +5°C° 0 mm 5 mps 760 mmHg 70%
    21:00 +5°C° 0 mm 5 mps 761 mmHg 71%
    22:00 +5°C° 0 mm 5 mps 761 mmHg 73%
    23:00 +3°C° 0 mm 5 mps 761 mmHg 75%

    17 November, Sunday

    Time Temperature Precipitation Wind Pressure Humidity
    00:00 +3°C° 0 mm 5 mps 761 mmHg 77%
    01:00 +2°C° 0 mm 5 mps 761 mmHg 80%
    02:00 +2°C° 0 mm 6 mps 761 mmHg 82%
    03:00 +2°C° 0 mm 6 mps 761 mmHg 84%
    04:00 +1°C° 0 mm 6 mps 761 mmHg 87%
    05:00 +1°C° 0 mm 6 mps 761 mmHg 89%
    06:00 +2°C° 0 mm 6 mps 761 mmHg 86%
    07:00 +2°C° 0 mm 7 mps 761 mmHg 83%
    08:00 +2°C° 0 mm 8 mps 761 mmHg 80%
    09:00 +4°C° 0 mm 7 mps 761 mmHg 74%
    10:00 +6°C° 0 mm 7 mps 761 mmHg 68%
    11:00 +8°C° 0 mm 7 mps 761 mmHg 62%
    12:00 +9°C° 0 mm 6 mps 761 mmHg 60%
    13:00 +9°C° 0 mm 6 mps 761 mmHg 57%
    14:00 +10°C° 0 mm 6 mps 761 mmHg 55%
    15:00 +9°C° 0 mm 5 mps 761 mmHg 60%
    16:00 +8°C° 0 mm 5 mps 761 mmHg 66%
    17:00 +7°C° 0 mm 5 mps 761 mmHg 71%
    18:00 +7°C° 0 mm 5 mps 761 mmHg 72%
    19:00 +6°C° 0 mm 5 mps 761 mmHg 73%
    20:00 +5°C° 0 mm 6 mps 761 mmHg 74%
    21:00 +6°C° 0 mm 5 mps 761 mmHg 76%
    22:00 +6°C° 0 mm 5 mps 761 mmHg 77%
    23:00 +5°C° 0 mm 5 mps 761 mmHg 79%
    Show more